Weather observations for the past three days for
Wiley Post-Will Rogers Memorial Airport
Imperial (Metric)
Date Time (akdt) Wind (mph) Vis. (mi.) Weather Sky Cond. Temperature (ºF) Relative Humidity Wind Chill (°F) Heat Index (°F) Pressure Precipitation (in)
Air Dwpt 6 hour altimeter (in) sea level (mb) 1 hr 3 hr 6 hr
Max. Min.
08 03:53 NE 6 4.00 Light Snow Fog/Mist BKN040 OVC070 17.1 15.1 19.9 17.1 92% 10 30.23 1023.8 0.01
08 02:53 E 6 1.75 Light Snow Fog/Mist OVC034 18 16 92% 11 30.23 1023.9
08 01:53 E 6 2.50 Light Snow Fog/Mist OVC039 19 17.1 92% 12 30.23 1023.9 0.01
08 00:53 E 7 3.00 Light Snow Fog/Mist OVC010 19 17.1 92% 11 30.24 1024.1
07 23:53 E 9 9.00 Overcast OVC009 19.9 17.1 89% 10 30.24 1024.2
07 22:53 E 9 8.00 Overcast OVC007 19.9 18 92% 10 30.24 1024.2
07 21:53 NE 9 9.00 Overcast OVC007 19.9 18 23 19.9 92% 10 30.24 1024.2
07 20:53 NE 10 10.00 Overcast OVC010 19.9 18 92% 9 30.24 1024.2
07 19:53 NE 13 7.00 Overcast OVC010 21 18 88% 10 30.24 1024.2
07 18:53 NE 13 9.00 Overcast SCT008 OVC014 21.9 19 89% 11 30.24 1024.2
07 17:53 E 9 10.00 Overcast OVC014 23 19 85% 14 30.24 1024.2
07 16:53 E 9 10.00 Overcast OVC014 21.9 19 89% 13 30.24 1024.1
07 15:53 E 10 10.00 Overcast BKN008 OVC012 21.9 19 23 21.9 89% 12 30.24 1024.2
07 14:53 E 8 10.00 Overcast OVC008 21.9 19 89% 13 30.24 1024.0
07 13:53 NE 9 10.00 Overcast SCT007 OVC012 21.9 19.9 92% 13 30.23 1023.7
07 12:53 NE 10 10.00 Overcast BKN005 OVC011 21.9 19.9 92% 12 30.22 1023.3
07 10:53 NE 12 3.00 Fog/Mist OVC003 21.9 19.9 92% 11 30.21 1023.0
07 09:53 NE 10 1.25 Fog/Mist OVC003 21.9 19.9 23 21.9 92% 12 30.2 1022.8
07 08:53 E 10 1.00 Fog/Mist OVC003 21.9 19.9 92% 12 30.19 1022.4
07 07:53 E 10 2.50 Fog/Mist OVC004 21.9 19.9 92% 12 30.17 1021.8
07 06:53 NE 14 4.00 Fog/Mist OVC005 21.9 19.9 92% 10 30.15 1021.1
07 05:53 NE 13 10.00 Overcast OVC008 21.9 19.9 92% 11 30.14 1020.6
07 04:53 NE 13 10.00 Overcast OVC007 21.9 19 89% 11 30.13 1020.3
07 03:53 NE 15 10.00 Overcast OVC006 23 19.9 27 23 88% 11 30.11 1019.6
07 02:53 NE 13 10.00 Overcast OVC007 24.1 21 88% 13 30.09 1019.0
07 01:53 NE 10 10.00 Overcast BKN010 OVC019 24.1 21 88% 15 30.07 1018.4
07 00:53 NE 8 10.00 Overcast OVC010 25 21.9 88% 17 30.05 1017.8
06 23:53 NE 9 9.00 Overcast OVC009 26.1 23 88% 18 30.03 1016.8
06 22:53 NE 7 9.00 Overcast BKN007 OVC014 26.1 24.1 92% 19 30.01 1016.2
06 21:53 NE 8 10.00 Overcast OVC010 27 23 27 26.1 85% 19 29.99 1015.5
06 20:53 NE 6 10.00 Overcast OVC012 27 24.1 89% 21 29.97 1015.0
06 19:53 NE 8 10.00 Overcast OVC012 27 23 85% 19 29.95 1014.3
06 18:53 NE 7 10.00 Overcast OVC010 27 23 85% 20 29.93 1013.7
06 17:53 N 6 10.00 Overcast OVC010 27 23 85% 21 29.91 1013.1
06 16:53 N 7 10.00 Overcast OVC010 27 23 85% 20 29.9 1012.5
06 15:53 N 6 10.00 Overcast OVC010 26.1 21.9 26.1 19.9 84% 20 29.89 1012.1
06 14:53 N 8 10.00 Overcast OVC010 25 21 85% 17 29.87 1011.6
06 13:53 NW 9 10.00 Overcast OVC010 24.1 19.9 84% 15 29.86 1011.3
06 12:53 NW 9 10.00 Overcast OVC010 21.9 18 85% 13 29.85 1011.0
06 11:53 NW 12 10.00 Overcast OVC010 21 17.1 85% 10 29.85 1010.7
06 10:53 NW 14 10.00 Overcast OVC012 21 16 81% 9 29.84 1010.6
06 09:53 N 12 10.00 Overcast OVC011 19.9 16 21.9 19.9 85% 9 29.84 1010.6
06 08:53 NW 10 9.00 Overcast OVC011 19.9 16 85% 9 29.84 1010.5
06 07:53 N 13 10.00 Overcast OVC010 19.9 16 85% 8 29.84 1010.5
06 06:53 NW 12 10.00 Overcast OVC009 21 17.1 85% 10 29.83 1010.4
06 05:53 N 12 8.00 Light Snow OVC010 21 18 88% 10 29.83 1010.3
06 04:53 N 10 9.00 Overcast OVC010 21.9 18 85% 12 29.83 1010.3
06 03:53 N 12 10.00 Overcast OVC011 21.9 18 23 21.9 85% 11 29.83 1010.2
06 02:53 N 13 8.00 Light Snow BKN010 BKN014 OVC038 21.9 18 85% 11 29.83 1010.2
06 01:53 N 12 10.00 Overcast OVC012 21.9 17.1 82% 11 29.83 1010.3
06 00:53 N 9 10.00 Overcast BKN013 BKN060 OVC070 21.9 17.1 82% 13 29.83 1010.1
05 23:53 N 8 10.00 Overcast SCT013 BKN019 OVC065 21.9 18 85% 13 29.83 1010.2
05 22:53 N 10 5.00 Light Snow Fog/Mist BKN014 OVC021 23 19 85% 13 29.83 1010.2
05 21:53 N 9 10.00 Overcast OVC015 23 18 24.1 23 81% 14 29.83 1010.3
05 20:53 N 9 10.00 Overcast OVC017 23 18 81% 14 29.83 1010.4
05 19:53 N 9 10.00 Overcast OVC012 23 18 81% 14 29.84 1010.5
05 18:53 N 12 10.00 Overcast OVC012 23 19 85% 13 29.84 1010.5
05 17:53 N 9 8.00 Light Snow OVC011 24.1 19 81% 15 29.84 1010.5
05 16:53 N 8 7.00 Light Snow OVC010 23 19 85% 15 29.84 1010.6
05 15:53 N 8 9.00 Overcast OVC010 24.1 19.9 25 23 84% 16 29.84 1010.7
05 14:53 NE 9 6.00 Light Snow Fog/Mist OVC010 24.1 19.9 84% 15 29.85 1010.8
05 13:53 N 10 10.00 Overcast SCT008 OVC019 25 21 85% 16 29.85 1010.9
05 12:53 N 7 10.00 Overcast OVC007 24.1 21 88% 17 29.86 1011.1
05 11:53 NE 7 9.00 Overcast OVC008 24.1 19.9 84% 17 29.86 1011.2
05 10:53 N 7 8.00 Light Snow OVC023 23 19.9 88% 16 29.87 1011.5
05 09:53 NE 6 8.00 Light Snow BKN021 OVC029 23 19.9 23 21.9 88% 17 29.88 1011.8
05 08:53 NE 7 8.00 Light Snow FEW012 OVC028 23 19.9 88% 16 29.89 1012.1
05 07:53 NE 6 10.00 Overcast OVC009 23 19.9 88% 17 29.89 1012.3
05 06:53 NE 5 10.00 Overcast OVC005 23 19.9 88% 18 29.9 1012.6
05 05:53 E 3 10.00 Overcast OVC004 21.9 19.9 92% 29.91 1013.0
05 04:53 E 7 7.00 Light Snow BKN007 OVC026 23 21 92% 16 29.92 1013.3
Date Time (akdt) Wind (mph) Vis. (mi.) Weather Sky Cond. Air Dwpt Max. Min. Relative Humidity Wind Chill (°F) Heat Index (°F) altimeter (in) sea level (mb) 1 hr 3 hr 6 hr
6 hour
Temperature (ºF) Pressure Precipitation (in)